Time,TemperatureF,DewpointF,PressureIn,WindDirection,WindDirectionDegrees,WindSpeedMPH,WindSpeedGustMPH,Humidity,HourlyPrecipIn,Conditions,Clouds,dailyrainin,SoftwareType,DateUTC
2013-01-20 00:01:00,42.6,32.4,30.23,SW,224,5.0,7.0,67,0.00,,---,0.00,VWS V14.01,2013-01-20 05:01:00,
2013-01-20 00:03:00,42.4,32.2,30.23,SW,233,5.0,7.0,67,0.00,,---,0.00,VWS V14.01,2013-01-20 05:03:00,
2013-01-20 00:08:00,42.3,32.1,30.23,SW,236,4.0,5.0,67,0.00,,---,0.00,VWS V14.01,2013-01-20 05:08:00,
2013-01-20 00:13:00,42.1,32.0,30.22,SW,224,5.0,5.0,67,0.00,,---,0.00,VWS V14.01,2013-01-20 05:13:00,
2013-01-20 00:18:00,41.8,32.0,30.22,SW,215,3.0,5.0,68,0.00,,---,0.00,VWS V14.01,2013-01-20 05:18:00,
2013-01-20 00:23:00,41.5,32.1,30.22,SW,218,6.0,6.0,69,0.00,,---,0.00,VWS V14.01,2013-01-20 05:23:00,
2013-01-20 00:29:00,41.3,31.9,30.22,SW,217,4.0,5.0,69,0.00,,---,0.00,VWS V14.01,2013-01-20 05:29:00,
2013-01-20 00:34:00,41.0,32.3,30.21,SSW,201,3.0,4.0,71,0.00,,---,0.00,VWS V14.01,2013-01-20 05:34:00,
2013-01-20 00:39:00,40.7,32.4,30.21,SW,225,3.0,4.0,72,0.00,,---,0.00,VWS V14.01,2013-01-20 05:39:00,
2013-01-20 00:44:00,40.8,32.5,30.21,SSW,211,2.0,5.0,72,0.00,,---,0.00,VWS V14.01,2013-01-20 05:44:00,
2013-01-20 00:49:00,40.8,32.1,30.21,SSW,200,2.0,4.0,71,0.00,,---,0.00,VWS V14.01,2013-01-20 05:49:00,
2013-01-20 00:54:00,40.7,32.4,30.21,SSW,194,2.0,3.0,72,0.00,,---,0.00,VWS V14.01,2013-01-20 05:54:00,
2013-01-20 00:59:00,40.7,32.0,30.20,SSW,200,1.0,4.0,71,0.00,,---,0.00,VWS V14.01,2013-01-20 05:59:00,
2013-01-20 01:04:00,40.7,32.0,30.20,SSW,203,3.0,5.0,71,0.00,,---,0.00,VWS V14.01,2013-01-20 06:04:00,
2013-01-20 01:09:00,40.6,32.0,30.20,SSW,211,4.0,5.0,71,0.00,,---,0.00,VWS V14.01,2013-01-20 06:09:00,
2013-01-20 01:14:00,40.7,32.0,30.20,SSW,204,4.0,4.0,71,0.00,,---,0.00,VWS V14.01,2013-01-20 06:14:00,
2013-01-20 01:19:00,40.7,32.0,30.20,SSW,197,4.0,4.0,71,0.00,,---,0.00,VWS V14.01,2013-01-20 06:19:00,
2013-01-20 01:24:00,40.6,32.0,30.20,SSW,205,4.0,5.0,71,0.00,,---,0.00,VWS V14.01,2013-01-20 06:24:00,
2013-01-20 01:29:00,40.8,31.8,30.20,SSW,208,3.0,5.0,70,0.00,,---,0.00,VWS V14.01,2013-01-20 06:29:00,
2013-01-20 01:34:00,40.7,32.0,30.20,SSW,213,3.0,4.0,71,0.00,,---,0.00,VWS V14.01,2013-01-20 06:34:00,
2013-01-20 01:39:00,40.5,31.9,30.20,SSW,200,3.0,4.0,71,0.00,,---,0.00,VWS V14.01,2013-01-20 06:39:00,
2013-01-20 01:44:00,40.4,32.1,30.20,SSW,205,2.0,3.0,72,0.00,,---,0.00,VWS V14.01,2013-01-20 06:44:00,
2013-01-20 01:49:00,40.1,31.8,30.20,South,181,2.0,3.0,72,0.00,,---,0.00,VWS V14.01,2013-01-20 06:49:00,
2013-01-20 01:54:00,40.1,31.8,30.20,SSW,208,3.0,4.0,72,0.00,,---,0.00,VWS V14.01,2013-01-20 06:54:00,
2013-01-20 01:59:00,40.0,32.1,30.20,SSW,203,2.0,4.0,73,0.00,,---,0.00,VWS V14.01,2013-01-20 06:59:00,
2013-01-20 02:04:00,39.9,32.0,30.19,SSW,203,3.0,4.0,73,0.00,,---,0.00,VWS V14.01,2013-01-20 07:04:00,
2013-01-20 02:09:00,39.8,31.9,30.19,SSW,198,3.0,3.0,73,0.00,,---,0.00,VWS V14.01,2013-01-20 07:09:00,
2013-01-20 02:14:00,39.8,31.9,30.19,SSW,204,2.0,5.0,73,0.00,,---,0.00,VWS V14.01,2013-01-20 07:14:00,
2013-01-20 02:19:00,40.0,31.7,30.19,SSW,205,5.0,6.0,72,0.00,,---,0.00,VWS V14.01,2013-01-20 07:19:00,
2013-01-20 02:24:00,39.8,31.9,30.19,SSW,206,3.0,4.0,73,0.00,,---,0.00,VWS V14.01,2013-01-20 07:24:00,
2013-01-20 02:29:00,39.7,31.8,30.19,SSW,211,3.0,4.0,73,0.00,,---,0.00,VWS V14.01,2013-01-20 07:29:00,
2013-01-20 02:34:00,39.5,31.9,30.19,SSW,205,4.0,4.0,74,0.00,,---,0.00,VWS V14.01,2013-01-20 07:34:00,
2013-01-20 02:39:00,39.4,31.8,30.19,SSW,211,3.0,4.0,74,0.00,,---,0.00,VWS V14.01,2013-01-20 07:39:00,
2013-01-20 02:44:00,39.3,31.7,30.19,SSW,195,4.0,5.0,74,0.00,,---,0.00,VWS V14.01,2013-01-20 07:44:00,
2013-01-20 02:49:00,39.2,31.6,30.19,SSW,203,4.0,5.0,74,0.00,,---,0.00,VWS V14.01,2013-01-20 07:49:00,
2013-01-20 02:54:00,39.2,31.6,30.18,SSW,204,4.0,5.0,74,0.00,,---,0.00,VWS V14.01,2013-01-20 07:54:00,
2013-01-20 02:59:00,39.2,31.6,30.18,SSW,205,4.0,4.0,74,0.00,,---,0.00,VWS V14.01,2013-01-20 07:59:00,
2013-01-20 03:04:00,39.1,31.9,30.18,SSW,206,4.0,6.0,75,0.00,,---,0.00,VWS V14.01,2013-01-20 08:04:00,
2013-01-20 03:09:00,38.9,31.7,30.18,SSW,207,4.0,4.0,75,0.00,,---,0.00,VWS V14.01,2013-01-20 08:09:00,
2013-01-20 03:14:00,38.8,31.9,30.18,SSW,212,4.0,5.0,76,0.00,,---,0.00,VWS V14.01,2013-01-20 08:14:00,
2013-01-20 03:19:00,38.6,31.7,30.18,SSW,208,3.0,5.0,76,0.00,,---,0.00,VWS V14.01,2013-01-20 08:19:00,
2013-01-20 03:24:00,38.5,31.6,30.18,SW,219,2.0,4.0,76,0.00,,---,0.00,VWS V14.01,2013-01-20 08:24:00,
2013-01-20 03:29:00,38.6,31.7,30.18,SW,217,3.0,4.0,76,0.00,,---,0.00,VWS V14.01,2013-01-20 08:29:00,
2013-01-20 03:34:00,38.6,31.7,30.18,SW,217,2.0,3.0,76,0.00,,---,0.00,VWS V14.01,2013-01-20 08:34:00,
2013-01-20 03:39:00,38.7,31.8,30.18,SW,217,3.0,3.0,76,0.00,,---,0.00,VWS V14.01,2013-01-20 08:39:00,
2013-01-20 03:44:00,38.8,31.6,30.18,SW,214,3.0,4.0,75,0.00,,---,0.00,VWS V14.01,2013-01-20 08:44:00,
2013-01-20 03:49:00,38.9,31.7,30.18,SW,221,2.0,4.0,75,0.00,,---,0.00,VWS V14.01,2013-01-20 08:49:00,
2013-01-20 03:54:00,39.0,31.8,30.18,SW,223,2.0,3.0,75,0.00,,---,0.00,VWS V14.01,2013-01-20 08:54:00,
2013-01-20 03:59:00,39.0,31.8,30.18,SSW,203,2.0,2.0,75,0.00,,---,0.00,VWS V14.01,2013-01-20 08:59:00,
2013-01-20 04:04:00,39.0,31.8,30.18,SSW,200,2.0,3.0,75,0.00,,---,0.00,VWS V14.01,2013-01-20 09:04:00,
2013-01-20 04:10:00,38.9,31.7,30.18,SSW,198,2.0,2.0,75,0.00,,---,0.00,VWS V14.01,2013-01-20 09:10:00,
2013-01-20 04:15:00,38.9,32.0,30.18,South,169,3.0,3.0,76,0.00,,---,0.00,VWS V14.01,2013-01-20 09:15:00,
2013-01-20 04:20:00,38.6,32.3,30.18,SSW,193,4.0,4.0,78,0.00,,---,0.00,VWS V14.01,2013-01-20 09:20:00,
2013-01-20 04:25:00,38.4,32.2,30.17,SSW,195,3.0,4.0,78,0.00,,---,0.00,VWS V14.01,2013-01-20 09:25:00,
2013-01-20 04:30:00,38.4,32.2,30.17,South,186,3.0,4.0,78,0.00,,---,0.00,VWS V14.01,2013-01-20 09:30:00,
2013-01-20 04:35:00,38.3,32.0,30.17,SSE,167,2.0,3.0,78,0.00,,---,0.00,VWS V14.01,2013-01-20 09:35:00,
2013-01-20 04:40:00,38.2,32.0,30.17,South,173,2.0,3.0,78,0.00,,---,0.00,VWS V14.01,2013-01-20 09:40:00,
2013-01-20 04:45:00,38.2,32.0,30.17,SE,141,1.0,3.0,78,0.00,,---,0.00,VWS V14.01,2013-01-20 09:45:00,
2013-01-20 04:50:00,38.2,31.6,30.16,SSW,193,1.0,3.0,77,0.00,,---,0.00,VWS V14.01,2013-01-20 09:50:00,
2013-01-20 04:55:00,38.1,31.9,30.16,SSE,165,2.0,3.0,78,0.00,,---,0.00,VWS V14.01,2013-01-20 09:55:00,
2013-01-20 05:00:00,37.8,31.6,30.16,South,169,4.0,4.0,78,0.00,,---,0.00,VWS V14.01,2013-01-20 10:00:00,
2013-01-20 05:05:00,37.5,31.6,30.16,SSE,159,3.0,5.0,79,0.00,,---,0.00,VWS V14.01,2013-01-20 10:05:00,
2013-01-20 05:10:00,37.4,31.5,30.16,South,181,5.0,5.0,79,0.00,,---,0.00,VWS V14.01,2013-01-20 10:10:00,
2013-01-20 05:15:00,37.7,31.8,30.16,South,183,4.0,5.0,79,0.00,,---,0.00,VWS V14.01,2013-01-20 10:15:00,
2013-01-20 05:20:00,37.8,31.6,30.16,South,177,4.0,5.0,78,0.00,,---,0.00,VWS V14.01,2013-01-20 10:20:00,
2013-01-20 05:25:00,37.8,31.6,30.16,South,186,4.0,5.0,78,0.00,,---,0.00,VWS V14.01,2013-01-20 10:25:00,
2013-01-20 05:30:00,37.8,31.6,30.16,South,187,5.0,6.0,78,0.00,,---,0.00,VWS V14.01,2013-01-20 10:30:00,
2013-01-20 05:35:00,37.7,31.5,30.16,SSW,198,5.0,6.0,78,0.00,,---,0.00,VWS V14.01,2013-01-20 10:35:00,
2013-01-20 05:40:00,37.3,31.4,30.16,South,188,4.0,6.0,79,0.00,,---,0.00,VWS V14.01,2013-01-20 10:40:00,
2013-01-20 05:45:00,37.0,31.1,30.16,SSW,201,3.0,6.0,79,0.00,,---,0.00,VWS V14.01,2013-01-20 10:45:00,
2013-01-20 05:50:00,36.7,31.1,30.16,South,183,4.0,6.0,80,0.00,,---,0.00,VWS V14.01,2013-01-20 10:50:00,
2013-01-20 05:55:00,36.4,31.1,30.15,SSW,194,6.0,7.0,81,0.00,,---,0.00,VWS V14.01,2013-01-20 10:55:00,
2013-01-20 06:00:00,36.0,31.0,30.15,South,179,6.0,8.0,82,0.00,,---,0.00,VWS V14.01,2013-01-20 11:00:00,
2013-01-20 06:05:00,35.6,31.0,30.15,SW,217,6.0,9.0,83,0.00,,---,0.00,VWS V14.01,2013-01-20 11:05:00,
2013-01-20 06:10:00,35.5,30.9,30.15,South,191,7.0,8.0,83,0.00,,---,0.00,VWS V14.01,2013-01-20 11:10:00,
2013-01-20 06:15:00,35.3,31.0,30.15,SSW,205,6.0,8.0,84,0.00,,---,0.00,VWS V14.01,2013-01-20 11:15:00,
2013-01-20 06:20:00,35.0,30.7,30.15,SSW,212,4.0,7.0,84,0.00,,---,0.00,VWS V14.01,2013-01-20 11:20:00,
2013-01-20 06:25:00,34.9,30.6,30.15,SSW,205,5.0,7.0,84,0.00,,---,0.00,VWS V14.01,2013-01-20 11:25:00,
2013-01-20 06:30:00,34.9,30.6,30.15,SW,214,5.0,7.0,84,0.00,,---,0.00,VWS V14.01,2013-01-20 11:30:00,
2013-01-20 06:35:00,34.9,30.9,30.15,SSW,205,5.0,6.0,85,0.00,,---,0.00,VWS V14.01,2013-01-20 11:35:00,
2013-01-20 06:40:00,34.8,30.8,30.15,SW,224,5.0,7.0,85,0.00,,---,0.00,VWS V14.01,2013-01-20 11:40:00,
2013-01-20 06:45:00,34.9,30.9,30.15,SW,233,5.0,6.0,85,0.00,,---,0.00,VWS V14.01,2013-01-20 11:45:00,
2013-01-20 06:50:00,35.0,30.7,30.15,SW,220,4.0,6.0,84,0.00,,---,0.00,VWS V14.01,2013-01-20 11:50:00,
2013-01-20 06:55:00,35.4,30.8,30.15,WSW,248,3.0,7.0,83,0.00,,---,0.00,VWS V14.01,2013-01-20 11:55:00,
2013-01-20 07:00:00,35.9,31.0,30.15,WSW,243,2.0,5.0,82,0.00,,---,0.00,VWS V14.01,2013-01-20 12:00:00,
2013-01-20 07:05:00,36.2,30.6,30.15,SW,232,1.0,5.0,80,0.00,,---,0.00,VWS V14.01,2013-01-20 12:05:00,
2013-01-20 07:10:00,36.4,30.5,30.16,SW,231,2.0,4.0,79,0.00,,---,0.00,VWS V14.01,2013-01-20 12:10:00,
2013-01-20 07:15:00,36.8,30.6,30.15,SW,228,1.0,3.0,78,0.00,,---,0.00,VWS V14.01,2013-01-20 12:15:00,
2013-01-20 07:20:00,37.1,30.6,30.16,WSW,241,1.0,5.0,77,0.00,,---,0.00,VWS V14.01,2013-01-20 12:20:00,
2013-01-20 07:25:00,37.2,30.7,30.16,SSW,201,0.0,4.0,77,0.00,,---,0.00,VWS V14.01,2013-01-20 12:25:00,
2013-01-20 07:30:00,37.0,30.5,30.16,SSW,194,1.0,2.0,77,0.00,,---,0.00,VWS V14.01,2013-01-20 12:30:00,
2013-01-20 07:35:00,37.0,30.5,30.16,SW,214,0.0,2.0,77,0.00,,---,0.00,VWS V14.01,2013-01-20 12:35:00,
2013-01-20 07:40:00,37.2,30.7,30.17,SW,226,0.0,1.0,77,0.00,,---,0.00,VWS V14.01,2013-01-20 12:40:00,
2013-01-20 07:45:00,37.5,30.6,30.17,WSW,256,0.0,1.0,76,0.00,,---,0.00,VWS V14.01,2013-01-20 12:45:00,
2013-01-20 07:50:00,37.9,31.0,30.17,WSW,256,0.0,1.0,76,0.00,,---,0.00,VWS V14.01,2013-01-20 12:50:00,
2013-01-20 07:55:00,38.2,31.0,30.17,SW,217,0.0,1.0,75,0.00,,---,0.00,VWS V14.01,2013-01-20 12:55:00,
2013-01-20 08:00:00,38.3,30.8,30.17,WSW,244,0.0,2.0,74,0.00,,---,0.00,VWS V14.01,2013-01-20 13:00:00,
2013-01-20 08:05:00,38.4,30.9,30.17,WSW,240,2.0,3.0,74,0.00,,---,0.00,VWS V14.01,2013-01-20 13:05:00,
2013-01-20 08:11:00,38.3,30.8,30.18,SW,228,1.0,3.0,74,0.00,,---,0.00,VWS V14.01,2013-01-20 13:11:00,
2013-01-20 08:16:00,38.4,30.9,30.18,SW,225,3.0,4.0,74,0.00,,---,0.00,VWS V14.01,2013-01-20 13:16:00,
2013-01-20 08:21:00,38.5,31.0,30.18,SW,221,1.0,5.0,74,0.00,,---,0.00,VWS V14.01,2013-01-20 13:21:00,
2013-01-20 08:26:00,38.7,31.1,30.17,SSW,210,2.0,3.0,74,0.00,,---,0.00,VWS V14.01,2013-01-20 13:26:00,
2013-01-20 08:31:00,38.8,30.9,30.17,SSW,208,1.0,4.0,73,0.00,,---,0.00,VWS V14.01,2013-01-20 13:31:00,
2013-01-20 08:36:00,38.8,31.2,30.17,South,186,5.0,6.0,74,0.00,,---,0.00,VWS V14.01,2013-01-20 13:36:00,
2013-01-20 08:41:00,38.8,31.2,30.17,SSW,212,4.0,6.0,74,0.00,,---,0.00,VWS V14.01,2013-01-20 13:41:00,
2013-01-20 08:46:00,39.0,31.4,30.17,SW,229,4.0,7.0,74,0.00,,---,0.00,VWS V14.01,2013-01-20 13:46:00,
2013-01-20 08:51:00,39.4,31.8,30.17,SW,221,4.0,5.0,74,0.00,,---,0.00,VWS V14.01,2013-01-20 13:51:00,
2013-01-20 08:56:00,39.8,31.9,30.18,SSW,212,4.0,5.0,73,0.00,,---,0.00,VWS V14.01,2013-01-20 13:56:00,
2013-01-20 09:01:00,40.3,32.3,30.18,SSW,192,0.0,8.0,73,0.00,,---,0.00,VWS V14.01,2013-01-20 14:01:00,
2013-01-20 09:06:00,40.7,32.4,30.18,SW,228,1.0,5.0,72,0.00,,---,0.00,VWS V14.01,2013-01-20 14:06:00,
2013-01-20 09:11:00,41.4,32.7,30.18,WSW,238,1.0,5.0,71,0.00,,---,0.00,VWS V14.01,2013-01-20 14:11:00,
2013-01-20 09:16:00,42.2,32.4,30.18,SW,236,6.0,8.0,68,0.00,,---,0.00,VWS V14.01,2013-01-20 14:16:00,
2013-01-20 09:21:00,42.6,32.0,30.19,SSW,210,5.0,9.0,66,0.00,,---,0.00,VWS V14.01,2013-01-20 14:21:00,
2013-01-20 09:26:00,43.2,32.6,30.19,SW,236,0.0,7.0,66,0.00,,---,0.00,VWS V14.01,2013-01-20 14:26:00,
2013-01-20 09:31:00,43.9,32.9,30.19,West,260,2.0,2.0,65,0.00,,---,0.00,VWS V14.01,2013-01-20 14:31:00,
2013-01-20 09:36:00,44.7,33.3,30.19,NW,314,0.0,3.0,64,0.00,,---,0.00,VWS V14.01,2013-01-20 14:36:00,
2013-01-20 09:41:00,45.5,33.7,30.19,WNW,285,0.0,4.0,63,0.00,,---,0.00,VWS V14.01,2013-01-20 14:41:00,
2013-01-20 09:46:00,45.9,33.2,30.19,West,271,3.0,7.0,61,0.00,,---,0.00,VWS V14.01,2013-01-20 14:46:00,
2013-01-20 09:51:00,46.3,33.6,30.19,SSW,205,1.0,5.0,61,0.00,,---,0.00,VWS V14.01,2013-01-20 14:51:00,
2013-01-20 09:56:00,46.7,33.6,30.19,SW,232,2.0,5.0,60,0.00,,---,0.00,VWS V14.01,2013-01-20 14:56:00,
2013-01-20 10:01:00,46.9,33.8,30.19,SW,222,3.0,4.0,60,0.00,,---,0.00,VWS V14.01,2013-01-20 15:01:00,
2013-01-20 10:06:00,47.1,33.1,30.19,SW,224,2.0,7.0,58,0.00,,---,0.00,VWS V14.01,2013-01-20 15:06:00,
2013-01-20 10:11:00,47.2,32.8,30.19,West,264,2.0,10.0,57,0.00,,---,0.00,VWS V14.01,2013-01-20 15:11:00,
2013-01-20 10:16:00,47.4,32.5,30.19,WSW,243,6.0,9.0,56,0.00,,---,0.00,VWS V14.01,2013-01-20 15:16:00,
2013-01-20 10:21:00,47.7,32.8,30.18,West,271,2.0,7.0,56,0.00,,---,0.00,VWS V14.01,2013-01-20 15:21:00,
2013-01-20 10:26:00,48.0,32.6,30.18,SW,219,3.0,7.0,55,0.00,,---,0.00,VWS V14.01,2013-01-20 15:26:00,
2013-01-20 10:31:00,48.3,33.3,30.18,South,173,0.0,8.0,56,0.00,,---,0.00,VWS V14.01,2013-01-20 15:31:00,
2013-01-20 10:36:00,48.8,33.4,30.18,SSW,197,2.0,7.0,55,0.00,,---,0.00,VWS V14.01,2013-01-20 15:36:00,
2013-01-20 10:41:00,49.4,33.0,30.18,WSW,248,4.0,6.0,53,0.00,,---,0.00,VWS V14.01,2013-01-20 15:41:00,
2013-01-20 10:46:00,49.5,33.1,30.18,SW,236,2.0,7.0,53,0.00,,---,0.00,VWS V14.01,2013-01-20 15:46:00,
2013-01-20 10:51:00,49.8,33.4,30.18,SSW,211,4.0,6.0,53,0.00,,---,0.00,VWS V14.01,2013-01-20 15:51:00,
2013-01-20 10:56:00,50.6,33.6,30.18,West,278,0.0,5.0,52,0.00,,---,0.00,VWS V14.01,2013-01-20 15:56:00,
2013-01-20 11:01:00,51.6,34.1,30.18,WNW,291,2.0,3.0,51,0.00,,---,0.00,VWS V14.01,2013-01-20 16:01:00,
2013-01-20 11:06:00,51.9,33.9,30.18,WNW,290,3.0,6.0,50,0.00,,---,0.00,VWS V14.01,2013-01-20 16:06:00,
2013-01-20 11:11:00,52.2,33.6,30.18,WNW,298,3.0,5.0,49,0.00,,---,0.00,VWS V14.01,2013-01-20 16:11:00,
2013-01-20 11:16:00,52.5,33.9,30.17,NNW,328,2.0,3.0,49,0.00,,---,0.00,VWS V14.01,2013-01-20 16:16:00,
2013-01-20 11:21:00,52.9,34.3,30.17,WNW,293,2.0,4.0,49,0.00,,---,0.00,VWS V14.01,2013-01-20 16:21:00,
2013-01-20 11:26:00,53.4,34.2,30.17,WNW,290,2.0,6.0,48,0.00,,---,0.00,VWS V14.01,2013-01-20 16:26:00,
2013-01-20 11:31:00,54.0,34.2,30.16,WNW,290,3.0,3.0,47,0.00,,---,0.00,VWS V14.01,2013-01-20 16:31:00,
2013-01-20 11:36:00,54.6,33.7,30.16,WSW,257,3.0,11.0,45,0.00,,---,0.00,VWS V14.01,2013-01-20 16:36:00,
2013-01-20 11:41:00,54.9,34.5,30.16,WNW,293,4.0,7.0,46,0.00,,---,0.00,VWS V14.01,2013-01-20 16:41:00,
2013-01-20 11:46:00,55.8,34.8,30.15,West,274,2.0,8.0,45,0.00,,---,0.00,VWS V14.01,2013-01-20 16:46:00,
2013-01-20 11:51:00,55.9,33.2,30.15,WNW,302,8.0,12.0,42,0.00,,---,0.00,VWS V14.01,2013-01-20 16:51:00,
2013-01-20 11:56:00,55.9,33.8,30.14,NW,309,9.0,11.0,43,0.00,,---,0.00,VWS V14.01,2013-01-20 16:56:00,
2013-01-20 12:01:00,56.2,33.4,30.14,WSW,256,5.0,9.0,42,0.00,,---,0.00,VWS V14.01,2013-01-20 17:01:00,
2013-01-20 12:06:00,56.6,33.8,30.14,West,274,9.0,9.0,42,0.00,,---,0.00,VWS V14.01,2013-01-20 17:06:00,
2013-01-20 12:11:00,57.0,34.2,30.13,NW,325,5.0,5.0,42,0.00,,---,0.00,VWS V14.01,2013-01-20 17:11:00,
2013-01-20 12:16:00,57.3,34.4,30.13,WNW,290,1.0,4.0,42,0.00,,---,0.00,VWS V14.01,2013-01-20 17:16:00,
2013-01-20 12:21:00,58.0,34.5,30.13,WNW,296,7.0,7.0,41,0.00,,---,0.00,VWS V14.01,2013-01-20 17:21:00,
2013-01-20 12:26:00,58.1,34.5,30.12,West,275,4.0,6.0,41,0.00,,---,0.00,VWS V14.01,2013-01-20 17:26:00,
2013-01-20 12:38:00,58.1,33.9,30.12,WNW,292,6.0,12.0,40,0.00,,---,0.00,VWS V14.01,2013-01-20 17:38:00,
2013-01-20 12:43:00,58.7,35.1,30.11,WNW,300,6.0,7.0,41,0.00,,---,0.00,VWS V14.01,2013-01-20 17:43:00,
2013-01-20 12:48:00,58.8,33.9,30.11,WNW,287,7.0,11.0,39,0.00,,---,0.00,VWS V14.01,2013-01-20 17:48:00,
2013-01-20 12:53:00,58.7,33.8,30.11,West,274,7.0,10.0,39,0.00,,---,0.00,VWS V14.01,2013-01-20 17:53:00,
2013-01-20 12:58:00,58.8,34.5,30.10,NW,304,2.0,7.0,40,0.00,,---,0.00,VWS V14.01,2013-01-20 17:58:00,
2013-01-20 13:03:00,59.5,35.2,30.10,WNW,288,0.0,7.0,40,0.00,,---,0.00,VWS V14.01,2013-01-20 18:03:00,
2013-01-20 13:08:00,59.6,34.6,30.10,WNW,283,10.0,11.0,39,0.00,,---,0.00,VWS V14.01,2013-01-20 18:08:00,
2013-01-20 13:13:00,59.5,34.5,30.09,West,267,8.0,9.0,39,0.00,,---,0.00,VWS V14.01,2013-01-20 18:13:00,
2013-01-20 13:18:00,59.6,34.6,30.09,WNW,292,2.0,8.0,39,0.00,,---,0.00,VWS V14.01,2013-01-20 18:18:00,
2013-01-20 13:23:00,59.8,34.8,30.09,West,266,2.0,8.0,39,0.00,,---,0.00,VWS V14.01,2013-01-20 18:23:00,
2013-01-20 13:28:00,60.3,35.3,30.09,WSW,257,5.0,7.0,39,0.00,,---,0.00,VWS V14.01,2013-01-20 18:28:00,
2013-01-20 13:33:00,60.3,34.6,30.08,SW,232,7.0,9.0,38,0.00,,---,0.00,VWS V14.01,2013-01-20 18:33:00,
2013-01-20 13:38:00,60.7,34.3,30.08,West,261,8.0,12.0,37,0.00,,---,0.00,VWS V14.01,2013-01-20 18:38:00,
2013-01-20 13:43:00,60.6,34.2,30.08,WSW,240,4.0,11.0,37,0.00,,---,0.00,VWS V14.01,2013-01-20 18:43:00,
2013-01-20 13:48:00,60.9,35.8,30.08,West,273,0.0,8.0,39,0.00,,---,0.00,VWS V14.01,2013-01-20 18:48:00,
2013-01-20 13:53:00,61.2,35.4,30.08,WSW,246,9.0,9.0,38,0.00,,---,0.00,VWS V14.01,2013-01-20 18:53:00,
2013-01-20 13:58:00,61.1,34.7,30.08,SSW,205,7.0,12.0,37,0.00,,---,0.00,VWS V14.01,2013-01-20 18:58:00,
2013-01-20 14:03:00,61.1,34.7,30.08,SSW,203,9.0,13.0,37,0.00,,---,0.00,VWS V14.01,2013-01-20 19:03:00,
2013-01-20 14:08:00,61.0,34.6,30.07,SW,233,8.0,12.0,37,0.00,,---,0.00,VWS V14.01,2013-01-20 19:08:00,
2013-01-20 14:13:00,61.3,35.5,30.07,NW,311,3.0,10.0,38,0.00,,---,0.00,VWS V14.01,2013-01-20 19:13:00,
2013-01-20 14:18:00,61.6,35.8,30.07,SW,226,8.0,10.0,38,0.00,,---,0.00,VWS V14.01,2013-01-20 19:18:00,
2013-01-20 14:23:00,61.4,35.6,30.07,NNW,329,3.0,8.0,38,0.00,,---,0.00,VWS V14.01,2013-01-20 19:23:00,
2013-01-20 14:28:00,61.7,35.9,30.07,WSW,248,9.0,9.0,38,0.00,,---,0.00,VWS V14.01,2013-01-20 19:28:00,
2013-01-20 14:33:00,62.0,34.8,30.07,West,281,3.0,10.0,36,0.00,,---,0.00,VWS V14.01,2013-01-20 19:33:00,
2013-01-20 14:39:00,61.9,35.4,30.07,SW,231,9.0,12.0,37,0.00,,---,0.00,VWS V14.01,2013-01-20 19:39:00,
2013-01-20 14:44:00,62.2,34.9,30.07,West,274,7.0,8.0,36,0.00,,---,0.00,VWS V14.01,2013-01-20 19:44:00,
2013-01-20 14:49:00,62.3,35.0,30.06,WSW,257,7.0,10.0,36,0.00,,---,0.00,VWS V14.01,2013-01-20 19:49:00,
2013-01-20 14:54:00,62.2,34.2,30.07,West,260,12.0,14.0,35,0.00,,---,0.00,VWS V14.01,2013-01-20 19:54:00,
2013-01-20 14:59:00,62.2,34.9,30.07,West,260,3.0,8.0,36,0.00,,---,0.00,VWS V14.01,2013-01-20 19:59:00,
2013-01-20 15:04:00,62.4,34.4,30.07,SW,228,9.0,13.0,35,0.00,,---,0.00,VWS V14.01,2013-01-20 20:04:00,
2013-01-20 15:09:00,62.3,33.6,30.06,SW,225,6.0,15.0,34,0.00,,---,0.00,VWS V14.01,2013-01-20 20:09:00,
2013-01-20 15:14:00,62.6,33.9,30.07,WNW,283,6.0,8.0,34,0.00,,---,0.00,VWS V14.01,2013-01-20 20:14:00,
2013-01-20 15:19:00,62.8,34.8,30.06,SW,222,4.0,11.0,35,0.00,,---,0.00,VWS V14.01,2013-01-20 20:19:00,
2013-01-20 15:24:00,63.1,34.3,30.06,SW,236,6.0,11.0,34,0.00,,---,0.00,VWS V14.01,2013-01-20 20:24:00,
2013-01-20 15:29:00,63.1,34.3,30.06,SSW,210,3.0,9.0,34,0.00,,---,0.00,VWS V14.01,2013-01-20 20:29:00,
2013-01-20 15:34:00,63.0,34.2,30.06,SW,231,3.0,11.0,34,0.00,,---,0.00,VWS V14.01,2013-01-20 20:34:00,
2013-01-20 15:39:00,63.4,34.6,30.06,SW,226,3.0,9.0,34,0.00,,---,0.00,VWS V14.01,2013-01-20 20:39:00,
2013-01-20 15:44:00,63.3,33.7,30.06,WSW,249,3.0,7.0,33,0.00,,---,0.00,VWS V14.01,2013-01-20 20:44:00,
2013-01-20 15:49:00,63.5,34.7,30.06,SW,225,2.0,8.0,34,0.00,,---,0.00,VWS V14.01,2013-01-20 20:49:00,
2013-01-20 15:54:00,63.7,34.1,30.06,West,278,7.0,8.0,33,0.00,,---,0.00,VWS V14.01,2013-01-20 20:54:00,
2013-01-20 15:59:00,63.6,34.0,30.06,West,280,3.0,6.0,33,0.00,,---,0.00,VWS V14.01,2013-01-20 20:59:00,
2013-01-20 16:04:00,63.9,35.0,30.06,SW,229,3.0,6.0,34,0.00,,---,0.00,VWS V14.01,2013-01-20 21:04:00,
2013-01-20 16:09:00,64.0,34.3,30.06,WSW,255,2.0,7.0,33,0.00,,---,0.00,VWS V14.01,2013-01-20 21:09:00,
2013-01-20 16:14:00,63.8,34.2,30.06,WSW,257,1.0,7.0,33,0.00,,---,0.00,VWS V14.01,2013-01-20 21:14:00,
2013-01-20 16:19:00,63.7,34.1,30.05,WSW,253,3.0,8.0,33,0.00,,---,0.00,VWS V14.01,2013-01-20 21:19:00,
2013-01-20 16:24:00,63.5,33.9,30.06,SW,235,6.0,10.0,33,0.00,,---,0.00,VWS V14.01,2013-01-20 21:24:00,
2013-01-20 16:29:00,63.4,33.0,30.06,WNW,291,2.0,8.0,32,0.00,,---,0.00,VWS V14.01,2013-01-20 21:29:00,
2013-01-20 16:34:00,63.5,34.7,30.06,West,274,1.0,5.0,34,0.00,,---,0.00,VWS V14.01,2013-01-20 21:34:00,
2013-01-20 16:39:00,63.4,34.6,30.06,West,269,2.0,6.0,34,0.00,,---,0.00,VWS V14.01,2013-01-20 21:39:00,
2013-01-20 16:44:00,63.3,34.5,30.06,West,266,5.0,9.0,34,0.00,,---,0.00,VWS V14.01,2013-01-20 21:44:00,
2013-01-20 16:50:00,62.9,34.1,30.06,WSW,240,4.0,9.0,34,0.00,,---,0.00,VWS V14.01,2013-01-20 21:50:00,
2013-01-20 16:55:00,62.9,34.8,30.06,WSW,255,3.0,7.0,35,0.00,,---,0.00,VWS V14.01,2013-01-20 21:55:00,
2013-01-20 17:00:00,62.6,35.3,30.06,SW,215,2.0,10.0,36,0.00,,---,0.00,VWS V14.01,2013-01-20 22:00:00,
2013-01-20 17:05:00,62.3,35.0,30.06,WSW,249,3.0,8.0,36,0.00,,---,0.00,VWS V14.01,2013-01-20 22:05:00,
2013-01-20 17:10:00,62.1,35.5,30.06,SW,235,2.0,6.0,37,0.00,,---,0.00,VWS V14.01,2013-01-20 22:10:00,
2013-01-20 17:15:00,61.9,35.4,30.06,SSW,205,5.0,7.0,37,0.00,,---,0.00,VWS V14.01,2013-01-20 22:15:00,
2013-01-20 17:20:00,61.6,35.8,30.07,WSW,252,4.0,6.0,38,0.00,,---,0.00,VWS V14.01,2013-01-20 22:20:00,
2013-01-20 17:25:00,61.4,35.6,30.07,WSW,239,1.0,6.0,38,0.00,,---,0.00,VWS V14.01,2013-01-20 22:25:00,
2013-01-20 17:30:00,61.1,35.3,30.07,SW,228,4.0,6.0,38,0.00,,---,0.00,VWS V14.01,2013-01-20 22:30:00,
2013-01-20 17:35:00,60.7,35.6,30.07,West,264,4.0,5.0,39,0.00,,---,0.00,VWS V14.01,2013-01-20 22:35:00,
2013-01-20 17:40:00,60.3,35.3,30.07,WSW,237,6.0,6.0,39,0.00,,---,0.00,VWS V14.01,2013-01-20 22:40:00,
2013-01-20 17:45:00,60.0,35.0,30.07,West,259,4.0,7.0,39,0.00,,---,0.00,VWS V14.01,2013-01-20 22:45:00,
2013-01-20 17:51:00,59.9,34.9,30.08,WSW,248,4.0,6.0,39,0.00,,---,0.00,VWS V14.01,2013-01-20 22:51:00,
2013-01-20 17:56:00,59.9,34.9,30.08,West,274,4.0,6.0,39,0.00,,---,0.00,VWS V14.01,2013-01-20 22:56:00,
2013-01-20 18:01:00,59.8,34.8,30.08,West,277,4.0,6.0,39,0.00,,---,0.00,VWS V14.01,2013-01-20 23:01:00,
2013-01-20 18:06:00,59.8,34.8,30.08,WSW,257,2.0,5.0,39,0.00,,---,0.00,VWS V14.01,2013-01-20 23:06:00,
2013-01-20 18:11:00,59.6,35.3,30.08,WNW,293,2.0,5.0,40,0.00,,---,0.00,VWS V14.01,2013-01-20 23:11:00,
2013-01-20 18:16:00,59.4,35.7,30.08,West,269,2.0,4.0,41,0.00,,---,0.00,VWS V14.01,2013-01-20 23:16:00,
2013-01-20 18:21:00,59.2,36.7,30.08,West,280,2.0,3.0,43,0.00,,---,0.00,VWS V14.01,2013-01-20 23:21:00,
2013-01-20 18:26:00,59.0,36.6,30.08,WSW,242,1.0,4.0,43,0.00,,---,0.00,VWS V14.01,2013-01-20 23:26:00,
2013-01-20 18:31:00,58.8,36.4,30.08,West,266,3.0,5.0,43,0.00,,---,0.00,VWS V14.01,2013-01-20 23:31:00,
2013-01-20 18:36:00,58.6,36.2,30.08,West,266,1.0,5.0,43,0.00,,---,0.00,VWS V14.01,2013-01-20 23:36:00,
2013-01-20 18:41:00,58.2,36.4,30.08,WNW,284,3.0,4.0,44,0.00,,---,0.00,VWS V14.01,2013-01-20 23:41:00,
2013-01-20 18:46:00,57.9,36.7,30.08,West,263,1.0,4.0,45,0.00,,---,0.00,VWS V14.01,2013-01-20 23:46:00,
2013-01-20 18:51:00,57.6,37.0,30.08,WSW,250,1.0,3.0,46,0.00,,---,0.00,VWS V14.01,2013-01-20 23:51:00,
2013-01-20 18:56:00,57.5,36.9,30.09,WSW,255,1.0,3.0,46,0.00,,---,0.00,VWS V14.01,2013-01-20 23:56:00,
2013-01-20 19:01:00,57.3,36.7,30.09,WSW,252,2.0,3.0,46,0.00,,---,0.00,VWS V14.01,2013-01-21 00:01:00,
2013-01-20 19:06:00,57.2,38.2,30.09,WSW,249,3.0,4.0,49,0.00,,---,0.00,VWS V14.01,2013-01-21 00:06:00,
2013-01-20 19:11:00,56.9,38.0,30.09,WSW,250,2.0,4.0,49,0.00,,---,0.00,VWS V14.01,2013-01-21 00:11:00,
2013-01-20 19:16:00,56.7,36.2,30.09,WSW,250,3.0,4.0,46,0.00,,---,0.00,VWS V14.01,2013-01-21 00:16:00,
2013-01-20 19:21:00,56.6,36.1,30.09,WSW,243,1.0,3.0,46,0.00,,---,0.00,VWS V14.01,2013-01-21 00:21:00,
2013-01-20 19:26:00,56.5,36.0,30.09,WSW,239,2.0,2.0,46,0.00,,---,0.00,VWS V14.01,2013-01-21 00:26:00,
2013-01-20 19:31:00,56.5,35.4,30.09,WSW,254,1.0,2.0,45,0.00,,---,0.00,VWS V14.01,2013-01-21 00:31:00,
2013-01-20 19:36:00,56.8,35.7,30.09,West,264,1.0,2.0,45,0.00,,---,0.00,VWS V14.01,2013-01-21 00:36:00,
2013-01-20 19:41:00,57.0,35.9,30.09,West,264,0.0,2.0,45,0.00,,---,0.00,VWS V14.01,2013-01-21 00:41:00,
2013-01-20 19:46:00,56.8,35.7,30.09,West,264,1.0,1.0,45,0.00,,---,0.00,VWS V14.01,2013-01-21 00:46:00,
2013-01-20 19:51:00,56.9,35.2,30.09,WSW,251,2.0,3.0,44,0.00,,---,0.00,VWS V14.01,2013-01-21 00:51:00,
2013-01-20 19:56:00,56.9,35.8,30.09,WSW,239,2.0,4.0,45,0.00,,---,0.00,VWS V14.01,2013-01-21 00:56:00,
2013-01-20 20:01:00,55.8,35.9,30.09,SW,229,2.0,2.0,47,0.00,,---,0.00,VWS V14.01,2013-01-21 01:01:00,
2013-01-20 20:06:00,54.9,36.1,30.09,SW,214,2.0,3.0,49,0.00,,---,0.00,VWS V14.01,2013-01-21 01:06:00,
2013-01-20 20:11:00,54.4,36.2,30.09,SSW,207,4.0,4.0,50,0.00,,---,0.00,VWS V14.01,2013-01-21 01:11:00,
2013-01-20 20:16:00,54.3,36.6,30.10,SW,217,1.0,4.0,51,0.00,,---,0.00,VWS V14.01,2013-01-21 01:16:00,
2013-01-20 20:21:00,53.9,36.2,30.10,SW,221,0.0,1.0,51,0.00,,---,0.00,VWS V14.01,2013-01-21 01:21:00,
2013-01-20 20:26:00,53.7,36.0,30.10,SW,221,0.0,1.0,51,0.00,,---,0.00,VWS V14.01,2013-01-21 01:26:00,
2013-01-20 20:31:00,53.9,35.7,30.10,West,278,0.0,2.0,50,0.00,,---,0.00,VWS V14.01,2013-01-21 01:31:00,
2013-01-20 20:36:00,54.3,35.6,30.11,NW,323,11.0,11.0,49,0.00,,---,0.00,VWS V14.01,2013-01-21 01:36:00,
2013-01-20 20:41:00,50.7,36.0,30.11,NNW,342,2.0,16.0,57,0.00,,---,0.00,VWS V14.01,2013-01-21 01:41:00,
2013-01-20 20:46:00,51.3,36.2,30.11,NW,321,1.0,5.0,56,0.00,,---,0.00,VWS V14.01,2013-01-21 01:46:00,
2013-01-20 20:51:00,52.2,36.1,30.11,NW,322,0.0,2.0,54,0.00,,---,0.00,VWS V14.01,2013-01-21 01:51:00,
2013-01-20 20:56:00,52.8,33.7,30.11,NNW,336,1.0,5.0,48,0.00,,---,0.00,VWS V14.01,2013-01-21 01:56:00,
2013-01-20 21:01:00,53.1,33.4,30.11,NW,326,1.0,4.0,47,0.00,,---,0.00,VWS V14.01,2013-01-21 02:01:00,
2013-01-20 21:06:00,53.2,32.4,30.11,NW,323,0.0,4.0,45,0.00,,---,0.00,VWS V14.01,2013-01-21 02:06:00,
2013-01-20 21:11:00,53.0,32.8,30.11,NW,326,2.0,3.0,46,0.00,,---,0.00,VWS V14.01,2013-01-21 02:11:00,
2013-01-20 21:16:00,52.5,32.9,30.11,NNW,328,1.0,2.0,47,0.00,,---,0.00,VWS V14.01,2013-01-21 02:16:00,
2013-01-20 21:21:00,52.0,32.9,30.11,NNW,330,0.0,2.0,48,0.00,,---,0.00,VWS V14.01,2013-01-21 02:21:00,
2013-01-20 21:26:00,51.6,33.1,30.11,NNW,330,1.0,2.0,49,0.00,,---,0.00,VWS V14.01,2013-01-21 02:26:00,
2013-01-20 21:31:00,51.4,32.9,30.11,NW,326,1.0,2.0,49,0.00,,---,0.00,VWS V14.01,2013-01-21 02:31:00,
2013-01-20 21:36:00,51.0,34.0,30.11,NW,326,0.0,2.0,52,0.00,,---,0.00,VWS V14.01,2013-01-21 02:36:00,
2013-01-20 21:41:00,50.4,33.9,30.11,NW,323,0.0,3.0,53,0.00,,---,0.00,VWS V14.01,2013-01-21 02:41:00,
2013-01-20 21:46:00,50.1,33.7,30.12,NNW,345,0.0,3.0,53,0.00,,---,0.00,VWS V14.01,2013-01-21 02:46:00,
2013-01-20 21:51:00,49.7,33.8,30.12,NNW,338,1.0,1.0,54,0.00,,---,0.00,VWS V14.01,2013-01-21 02:51:00,
2013-01-20 21:56:00,49.5,33.6,30.12,NNW,337,0.0,1.0,54,0.00,,---,0.00,VWS V14.01,2013-01-21 02:56:00,
2013-01-20 22:01:00,49.2,33.7,30.12,NNW,338,1.0,1.0,55,0.00,,---,0.00,VWS V14.01,2013-01-21 03:01:00,
2013-01-20 22:06:00,48.8,33.4,30.12,NNW,338,0.0,1.0,55,0.00,,---,0.00,VWS V14.01,2013-01-21 03:06:00,
2013-01-20 22:11:00,48.3,33.3,30.12,NNW,338,0.0,0.0,56,0.00,,---,0.00,VWS V14.01,2013-01-21 03:11:00,
2013-01-20 22:16:00,48.5,33.1,30.13,North,4,0.0,1.0,55,0.00,,---,0.00,VWS V14.01,2013-01-21 03:16:00,
2013-01-20 22:21:00,48.5,32.2,30.12,North,9,0.0,1.0,53,0.00,,---,0.00,VWS V14.01,2013-01-21 03:21:00,
2013-01-20 22:26:00,48.5,32.2,30.13,NNE,25,0.0,1.0,53,0.00,,---,0.00,VWS V14.01,2013-01-21 03:26:00,
2013-01-20 22:31:00,48.6,32.3,30.13,NNE,25,0.0,1.0,53,0.00,,---,0.00,VWS V14.01,2013-01-21 03:31:00,
2013-01-20 22:36:00,48.6,31.8,30.13,NNE,25,0.0,1.0,52,0.00,,---,0.00,VWS V14.01,2013-01-21 03:36:00,
2013-01-20 22:41:00,48.6,31.3,30.13,NE,47,0.0,1.0,51,0.00,,---,0.00,VWS V14.01,2013-01-21 03:41:00,
2013-01-20 22:46:00,48.8,31.5,30.13,NE,47,0.0,1.0,51,0.00,,---,0.00,VWS V14.01,2013-01-21 03:46:00,
2013-01-20 22:51:00,48.6,31.3,30.13,NE,56,0.0,1.0,51,0.00,,---,0.00,VWS V14.01,2013-01-21 03:51:00,
2013-01-20 22:56:00,48.5,31.2,30.13,ENE,72,0.0,1.0,51,0.00,,---,0.00,VWS V14.01,2013-01-21 03:56:00,
2013-01-20 23:01:00,48.1,31.3,30.13,SE,135,0.0,1.0,52,0.00,,---,0.00,VWS V14.01,2013-01-21 04:01:00,
2013-01-20 23:06:00,47.8,31.0,30.13,SE,132,0.0,0.0,52,0.00,,---,0.00,VWS V14.01,2013-01-21 04:06:00,
2013-01-20 23:11:00,47.9,31.1,30.13,SE,124,1.0,1.0,52,0.00,,---,0.00,VWS V14.01,2013-01-21 04:11:00,
2013-01-20 23:16:00,48.2,30.9,30.12,East,84,0.0,1.0,51,0.00,,---,0.00,VWS V14.01,2013-01-21 04:16:00,
2013-01-20 23:21:00,48.0,31.2,30.13,East,86,0.0,1.0,52,0.00,,---,0.00,VWS V14.01,2013-01-21 04:21:00,
2013-01-20 23:26:00,47.5,31.2,30.12,East,84,0.0,1.0,53,0.00,,---,0.00,VWS V14.01,2013-01-21 04:26:00,
2013-01-20 23:31:00,47.1,30.9,30.12,East,84,0.0,0.0,53,0.00,,---,0.00,VWS V14.01,2013-01-21 04:31:00,
2013-01-20 23:36:00,46.9,31.1,30.12,East,84,0.0,0.0,54,0.00,,---,0.00,VWS V14.01,2013-01-21 04:36:00,
2013-01-20 23:41:00,46.5,30.3,30.12,East,84,0.0,0.0,53,0.00,,---,0.00,VWS V14.01,2013-01-21 04:41:00,
2013-01-20 23:46:00,46.4,30.2,30.12,East,84,0.0,0.0,53,0.00,,---,0.00,VWS V14.01,2013-01-21 04:46:00,
2013-01-20 23:51:00,46.6,30.4,30.12,ENE,64,0.0,1.0,53,0.00,,---,0.00,VWS V14.01,2013-01-21 04:51:00,
2013-01-20 23:56:00,46.6,30.9,30.12,ENE,65,0.0,1.0,54,0.00,,---,0.00,VWS V14.01,2013-01-21 04:56:00,